Hourly Data Report for October 11, 2015

All times are specified in Local Standard Time (LST). Add 1 hour to adjust for Daylight Saving Time where and when it is observed.

TORONTO INTL A
ONTARIO

43°40'36.000" N
79°37'50.000" W
173.40 m
6158731
71624
YYZ

Download Data

Hourly Data (October 2015)
Hourly Data Report for October 11, 2015
Temp Definition
°C
Dew Point Temp Definition
°C
Rel Hum Definition
%
Wind Dir Definition
10's deg

Wind Spd Definition
km/h
Visibility Definition
km
Stn Press Definition
kPa
Hmdx Definition


Wind Chill Definition


Weather Definition


TIME
00:00 Legend Double Dagger 11.0 7.2 77 22 16 24.1 99.23     LegendNANA
01:00 Legend Double Dagger 10.8 7.0 77 22 17 24.1 99.15     Mainly Clear
02:00 Legend Double Dagger 11.2 6.8 74 22 15 24.1 99.15     LegendNANA
03:00 Legend Double Dagger 11.3 7.1 75 22 14 24.1 99.12     LegendNANA
04:00 Legend Double Dagger 11.5 7.3 75 21 12 24.1 99.09     Mostly Cloudy
05:00 Legend Double Dagger 11.4 7.2 75 22 13 24.1 99.05     LegendNANA
06:00 Legend Double Dagger 12.1 7.2 72 22 17 24.1 98.97     LegendNANA
07:00 Legend Double Dagger 12.0 7.4 73 22 22 24.1 98.90     Mostly Cloudy
08:00 Legend Double Dagger 13.2 7.3 67 22 21 24.1 98.89     LegendNANA
09:00 Legend Double Dagger 15.2 7.3 59 22 23 24.1 98.88     LegendNANA
10:00 Legend Double Dagger 16.5 7.5 55 23 28 24.1 98.84     Mainly Clear
11:00 Legend Double Dagger 19.0 7.2 46 23 25 24.1 98.78     LegendNANA
12:00 Legend Double Dagger 21.1 7.1 40 23 27 24.1 98.71     LegendNANA
13:00 Legend Double Dagger 21.9 5.9 35 25 36 24.1 98.63     Mainly Clear
14:00 Legend Double Dagger 22.7 6.2 34 25 31 24.1 98.55     LegendNANA
15:00 Legend Double Dagger 22.9 6.8 35 23 27 24.1 98.51     LegendNANA
16:00 Legend Double Dagger 22.0 9.7 45 21 24 24.1 98.50     Clear
17:00 Legend Double Dagger 20.3 9.1 48 22 25 24.1 98.50     LegendNANA
18:00 Legend Double Dagger 18.5 9.4 55 23 23 24.1 98.53     LegendNANA
19:00 Legend Double Dagger 17.4 8.4 55 22 20 24.1 98.57     Clear
20:00 Legend Double Dagger 17.3 7.5 52 21 14 24.1 98.57     LegendNANA
21:00 Legend Double Dagger 18.0 6.9 48 22 17 24.1 98.57     LegendNANA
22:00 Legend Double Dagger 17.7 7.3 50 20 13 24.1 98.58     Clear
23:00 Legend Double Dagger 17.0 7.5 53 19 9 24.1 98.57     LegendNANA

Notes on Data Quality.

Legend

  • E = Estimated
  • M = Missing
  • NA = Not Available
  • ‡ = Partner data that is not subject to review by the National Climate Archives
Date modified: